« Back
NWS Peachtree City, Ga » Text Product » GA Regional Weather Roundup


Printer-friendly Version
Current Version              Previous Versions:   1  2  3  4  5  6  7  8  9  

Regional Weather Roundup

046
ASUS42 KFFC 311003
RWRGA
WEATHER ROUNDUP FOR GEORGIA
NATIONAL WEATHER SERVICE PEACHTREE CITY GA
600 AM EDT THU JUL 31 2014

NOTE: "FAIR" INDICATES FEW OR NO CLOUDS BELOW 12,000 FEET WITH NO
SIGNIFICANT WEATHER AND/OR OBSTRUCTIONS TO VISIBILITY.

* = USE WITH CAUTION. THE STATIONS MARKED WITH AN ASTERISK MAY NOT
REPORT WEATHER SUCH AS PRECIPITATION, FOG, OR THUNDER AND ARE NOT
QUALITY CONTROLLED BY NWS.

THE REMARK "TC" DENOTES TEMPERATURE READING IN DEGREES CELSIUS.

GAZ001>058-311100-
NORTH GEORGIA

CITY           SKY/WX    TMP DP  RH WIND       PRES   REMARKS
ATLANTA        CLOUDY    71  61  70 NE9       30.05R
ATHENS         PTCLDY    69  63  81 NE6       30.05S
CHAMBLEE       MOCLDY    69  60  73 CALM      30.06R
PEACHTREE CITY CLOUDY    64  62  93 CALM      30.04S
ROME           CLOUDY    64  60  87 CALM      30.05S
WEST ATLANTA   CLOUDY    66  62  87 CALM      30.05R
GAINESVILLE    PTCLDY    67  58  72 NE6       30.09R
CARTERSVILLE   CLOUDY    63  59  87 CALM      30.06S


CITY           SKY/WX    TMP DP  RH WIND       PRES   REMARKS
DALTON*        CLOUDY    61  59  94 CALM      30.06F
MARIETTA       CLOUDY    68  61  80 NE5       30.06R
$$

GAZ059>098-102>109-311100-
CENTRAL GEORGIA

CITY           SKY/WX    TMP DP  RH WIND       PRES   REMARKS
AUGUSTA-BUSH   MOCLDY    72  69  90 CALM      30.02S
AUGUSTA-DANIEL PTCLDY    74  68  81 NE6       30.03S
COLUMBUS       CLEAR     69  60  73 CALM      30.01R
MACON          CLEAR     67  66  97 CALM      30.01R
ROBINS AFB     MOCLDY    69  67  92 N1        30.00S


CITY           SKY/WX    TMP DP  RH WIND       PRES   REMARKS
LAGRANGE*      CLEAR     67  64  90 CALM      30.03S
SYLVANIA*      CLOUDY    74  73  98 CALM      30.01S
MILLEDGEVILLE* PTCLDY    68  63  83 E3        30.02S
$$

GAZ099>101-110>166-311100-
SOUTH GEORGIA

CITY           SKY/WX    TMP DP  RH WIND       PRES   REMARKS
SAVANNAH       MOCLDY    75  71  87 N7        29.98R
VALDOSTA       CLEAR     67  61  81 CALM      29.97R
ALMA           PTCLDY    72  70  93 CALM      29.97R
ST SIMONS      CLEAR     76  74  93 W3        29.95R
FT STEWART     MOCLDY    74  71  90 NW6       29.96S
ALBANY         CLEAR     65  61  87 CALM      30.00S
HUNTER AFB     MOCLDY    75  73  93 NE8       29.95S
MOODY AFB      CLEAR     66  65  95 W2        29.97R
BRUNSWICK      CLEAR     73  70  88 W3        29.96R


CITY           SKY/WX    TMP DP  RH WIND       PRES   REMARKS
BAINBRIDGE*    CLEAR     66  64  94 CALM      30.00R
MOULTRIE*      CLEAR     70  64  83 CALM      30.00R
VIDALIA*         N/A     72  72 100 CALM      29.99S
WAYCROSS*      PTCLDY    74  74  99 CALM      29.97R FOG
DOUGLAS*       PTCLDY    75  72  88 E5        29.99R
$$



USA.gov is the U.S. government's official web portal to all federal, state and local government web resources and services.